| time (UTC) | temp F | wind direction | speed knots | gust knots | rain 1hr in | rain 24hr in | rain mn in | humidity % | barometer mb |
| 20260505094133 | 51 | 206 | 0.0 | 0.0 | 0.00 | 0.00 | 0.00 | 89 | 1016.0 |
| 20260505093630 | 52 | 206 | 0.0 | 0.0 | 0.00 | 0.00 | 0.00 | 89 | 1015.7 |
| 20260505093127 | 52 | 206 | 0.0 | 0.0 | 0.00 | 0.00 | 0.00 | 89 | 1015.8 |
| 20260505092624 | 52 | 206 | 0.0 | 0.0 | 0.00 | 0.00 | 0.00 | 88 | 1015.8 |
| 20260505092123 | 52 | 206 | 0.0 | 0.0 | 0.00 | 0.00 | 0.00 | 88 | 1015.6 |
| 20260505091619 | 52 | 206 | 0.0 | 0.0 | 0.00 | 0.00 | 0.00 | 87 | 1015.6 |
| 20260505091118 | 53 | 206 | 0.0 | 0.0 | 0.00 | 0.00 | 0.00 | 86 | 1015.7 |
| 20260505090615 | 53 | 206 | 0.0 | 0.0 | 0.00 | 0.00 | 0.00 | 86 | 1015.5 |
| 20260505090113 | 53 | 206 | 0.9 | 0.9 | 0.00 | 0.00 | 0.00 | 86 | 1015.4 |
| 20260505085610 | 53 | 206 | 0.0 | 0.0 | 0.00 | 0.00 | 0.00 | 86 | 1015.6 |
| 20260505085109 | 53 | 206 | 0.0 | 0.0 | 0.00 | 0.00 | 0.00 | 85 | 1015.3 |
| 20260505084606 | 53 | 206 | 0.0 | 0.0 | 0.00 | 0.00 | 0.00 | 85 | 1015.4 |
| 20260505084104 | 53 | 206 | 0.9 | 0.9 | 0.00 | 0.00 | 0.00 | 84 | 1015.6 |
| 20260505083601 | 53 | 206 | 0.0 | 0.9 | 0.00 | 0.00 | 0.00 | 84 | 1015.6 |
| 20260505083057 | 54 | 206 | 0.0 | 0.9 | 0.00 | 0.00 | 0.00 | 84 | 1015.4 |
| 20260505082553 | 54 | 206 | 0.0 | 0.9 | 0.00 | 0.00 | 0.00 | 84 | 1015.6 |
| 20260505082051 | 54 | 206 | 0.0 | 0.0 | 0.00 | 0.00 | 0.00 | 83 | 1015.4 |
| 20260505081547 | 54 | 206 | 0.9 | 0.9 | 0.00 | 0.00 | 0.00 | 83 | 1015.5 |
| 20260505081044 | 54 | 206 | 0.0 | 0.9 | 0.00 | 0.00 | 0.00 | 83 | 1015.4 |
| 20260505080540 | 54 | 206 | 0.9 | 0.9 | 0.00 | 0.00 | 0.00 | 83 | 1015.2 |
| 20260505080037 | 54 | 206 | 0.0 | 0.0 | 0.00 | 0.00 | 0.00 | 82 | 1015.3 |
| 20260505075533 | 54 | 206 | 0.0 | 0.0 | 0.00 | 0.00 | 0.00 | 82 | 1015.3 |
| 20260505075030 | 55 | 206 | 0.0 | 0.9 | 0.00 | 0.00 | 0.00 | 82 | 1015.2 |
| 20260505074527 | 55 | 206 | 0.0 | 1.7 | 0.00 | 0.00 | 0.00 | 81 | 1015.1 |
| 20260505074024 | 55 | 205 | 0.0 | 0.0 | 0.00 | 0.00 | 0.00 | 81 | 1014.8 |
| 20260505073521 | 55 | 205 | 0.0 | 0.0 | 0.00 | 0.00 | 0.00 | 80 | 1014.9 |
| 20260505073020 | 55 | 204 | 0.0 | 0.9 | 0.00 | 0.00 | 0.00 | 80 | 1014.5 |
| 20260505072515 | 56 | 204 | 0.0 | 1.7 | 0.00 | 0.00 | 0.00 | 79 | 1014.9 |
| 20260505072011 | 56 | 202 | 0.0 | 1.7 | 0.00 | 0.00 | 0.00 | 79 | 1014.7 |
| 20260505071507 | 56 | 219 | 0.0 | 0.0 | 0.00 | 0.00 | 0.00 | 78 | 1014.7 |
| 20260505071005 | 57 | 220 | 0.9 | 1.7 | 0.00 | 0.00 | 0.00 | 78 | 1014.6 |
| 20260505070502 | 56 | 221 | 0.0 | 0.0 | 0.00 | 0.00 | 0.00 | 78 | 1014.5 |
| 20260505065957 | 56 | 225 | 0.9 | 1.7 | 0.00 | 0.00 | 0.00 | 78 | 1014.5 |
| 20260505065454 | 57 | 227 | 0.9 | 2.6 | 0.00 | 0.00 | 0.00 | 78 | 1014.4 |
| 20260505064951 | 57 | 205 | 0.9 | 1.7 | 0.00 | 0.00 | 0.00 | 78 | 1014.3 |
| 20260505064448 | 57 | 204 | 0.0 | 0.0 | 0.00 | 0.00 | 0.00 | 78 | 1014.4 |
| 20260505063946 | 57 | 204 | 0.0 | 0.9 | 0.00 | 0.00 | 0.00 | 78 | 1014.4 |
| 20260505063442 | 57 | 204 | 0.0 | 0.9 | 0.00 | 0.00 | 0.00 | 77 | 1014.1 |
| 20260505062939 | 57 | 204 | 0.0 | 0.9 | 0.00 | 0.00 | 0.00 | 77 | 1014.2 |
| 20260505062436 | 57 | 204 | 0.9 | 1.7 | 0.00 | 0.00 | 0.00 | 77 | 1014.0 |
| 20260505061933 | 57 | 204 | 0.9 | 1.7 | 0.00 | 0.00 | 0.00 | 77 | 1014.0 |
| 20260505061431 | 58 | 204 | 1.7 | 1.7 | 0.00 | 0.00 | 0.00 | 76 | 1013.9 |
| 20260505060928 | 58 | 204 | 0.9 | 0.9 | 0.00 | 0.00 | 0.00 | 76 | 1014.0 |
| 20260505060425 | 58 | 204 | 0.9 | 0.9 | 0.00 | 0.00 | 0.00 | 76 | 1013.9 |
| 20260505055921 | 58 | 203 | 0.0 | 0.9 | 0.00 | 0.00 | 0.00 | 76 | 1013.9 |
| 20260505055418 | 58 | 192 | 0.9 | 0.9 | 0.00 | 0.00 | 0.00 | 76 | 1013.8 |
| 20260505054914 | 59 | 192 | 0.9 | 0.9 | 0.00 | 0.00 | 0.00 | 76 | 1013.8 |
| 20260505054412 | 59 | 192 | 0.0 | 0.0 | 0.00 | 0.00 | 0.00 | 75 | 1013.9 |
| 20260505053910 | 59 | 192 | 0.0 | 0.0 | 0.00 | 0.00 | 0.00 | 75 | 1013.8 |
| 20260505053407 | 59 | 192 | 0.0 | 2.6 | 0.00 | 0.00 | 0.00 | 74 | 1013.8 |
| 20260505052903 | 60 | 214 | 0.0 | 0.9 | 0.00 | 0.00 | 0.00 | 73 | 1013.7 |
| 20260505052400 | 60 | 214 | 0.0 | 0.9 | 0.00 | 0.00 | 0.00 | 73 | 1013.7 |
| 20260505051858 | 60 | 214 | 0.0 | 0.9 | 0.00 | 0.00 | 0.00 | 73 | 1013.5 |
| 20260505051354 | 61 | 214 | 0.0 | 0.9 | 0.00 | 0.00 | 0.00 | 72 | 1013.6 |
| 20260505050853 | 61 | 214 | 0.0 | 0.0 | 0.00 | 0.00 | 0.00 | 72 | 1013.6 |
| 20260505050351 | 62 | 213 | 0.0 | 0.9 | 0.00 | 0.00 | 0.00 | 71 | 1013.6 |
| 20260505041318 | 65 | 213 | 0.0 | 1.7 | 0.00 | 0.00 | 0.00 | 67 | 1012.7 |
| 20260505040815 | 65 | 213 | 0.9 | 0.9 | 0.00 | 0.00 | 0.00 | 67 | 1012.5 |
| 20260505040313 | 65 | 213 | 0.0 | 0.0 | 0.00 | 0.00 | 0.00 | 67 | 1012.6 |
| 20260505035809 | 66 | 213 | 0.0 | 0.9 | 0.00 | 0.00 | 0.00 | 67 | 1012.5 |
| 20260505035305 | 66 | 213 | 0.9 | 0.9 | 0.00 | 0.00 | 0.00 | 67 | 1012.2 |
| 20260505034803 | 66 | 213 | 0.0 | 0.9 | 0.00 | 0.00 | 0.00 | 67 | 1012.3 |
| 20260505034259 | 66 | 212 | 0.0 | 0.0 | 0.00 | 0.00 | 0.00 | 66 | 1012.1 |
| 20260505033756 | 67 | 209 | 0.0 | 0.0 | 0.00 | 0.00 | 0.00 | 67 | 1012.1 |
| 20260505033253 | 67 | 209 | 0.0 | 0.9 | 0.00 | 0.00 | 0.00 | 66 | 1012.1 |
| 20260505032751 | 68 | 209 | 0.0 | 1.7 | 0.00 | 0.00 | 0.00 | 66 | 1011.9 |
| 20260505032247 | 68 | 209 | 0.9 | 0.9 | 0.00 | 0.00 | 0.00 | 65 | 1012.1 |
| 20260505031744 | 68 | 209 | 0.0 | 0.9 | 0.00 | 0.00 | 0.00 | 64 | 1012.0 |
| 20260505031241 | 68 | 208 | 0.9 | 0.9 | 0.00 | 0.00 | 0.00 | 64 | 1011.8 |
| 20260505030738 | 69 | 211 | 0.0 | 1.7 | 0.00 | 0.00 | 0.00 | 63 | 1011.8 |
| 20260505030234 | 69 | 208 | 0.9 | 1.7 | 0.00 | 0.00 | 0.00 | 64 | 1011.8 |
| 20260505025730 | 69 | 206 | 0.0 | 1.7 | 0.00 | 0.00 | 0.00 | 64 | 1011.8 |
| 20260505025228 | 70 | 207 | 0.9 | 1.7 | 0.00 | 0.00 | 0.00 | 64 | 1011.7 |
| 20260505024726 | 70 | 201 | 0.0 | 0.9 | 0.00 | 0.00 | 0.00 | 64 | 1011.7 |
| 20260505024223 | 70 | 200 | 0.0 | 0.9 | 0.00 | 0.00 | 0.00 | 64 | 1011.6 |
| 20260505023720 | 70 | 201 | 0.0 | 0.9 | 0.00 | 0.00 | 0.00 | 64 | 1011.6 |
| 20260505023217 | 70 | 200 | 0.0 | 0.0 | 0.00 | 0.00 | 0.00 | 64 | 1011.4 |
| 20260505022715 | 71 | 200 | 0.0 | 0.0 | 0.00 | 0.00 | 0.00 | 63 | 1011.4 |
| 20260505022211 | 71 | 200 | 0.0 | 0.0 | 0.00 | 0.00 | 0.00 | 63 | 1011.5 |
| 20260505021708 | 71 | 200 | 0.0 | 0.0 | 0.00 | 0.00 | 0.00 | 62 | 1011.6 |
| 20260505021205 | 71 | 200 | 0.0 | 0.0 | 0.00 | 0.00 | 0.00 | 62 | 1011.4 |
| 20260505020701 | 72 | 200 | 0.0 | 0.9 | 0.00 | 0.00 | 0.00 | 60 | 1011.4 |
| 20260505020157 | 72 | 200 | 0.0 | 0.9 | 0.00 | 0.00 | 0.00 | 60 | 1011.5 |
| 20260505015654 | 72 | 201 | 0.9 | 1.7 | 0.00 | 0.00 | 0.00 | 59 | 1011.7 |
| 20260505015150 | 73 | 201 | 0.9 | 0.9 | 0.00 | 0.00 | 0.00 | 59 | 1011.4 |
| 20260505014648 | 73 | 215 | 0.0 | 0.0 | 0.00 | 0.00 | 0.00 | 58 | 1011.4 |
| 20260505014145 | 74 | 219 | 0.0 | 0.0 | 0.00 | 0.00 | 0.00 | 57 | 1011.4 |
| 20260505013642 | 74 | 219 | 0.0 | 0.9 | 0.00 | 0.00 | 0.00 | 56 | 1011.3 |
| 20260505013139 | 75 | 221 | 0.0 | 0.0 | 0.00 | 0.00 | 0.00 | 55 | 1011.6 |
| 20260505012637 | 75 | 221 | 0.0 | 0.0 | 0.00 | 0.00 | 0.00 | 55 | 1011.6 |
| 20260505012134 | 75 | 221 | 0.0 | 0.9 | 0.00 | 0.00 | 0.00 | 55 | 1011.6 |
| 20260505011630 | 76 | 222 | 0.9 | 1.7 | 0.00 | 0.00 | 0.00 | 54 | 1011.7 |
| 20260505011127 | 75 | 217 | 1.7 | 2.6 | 0.00 | 0.00 | 0.00 | 54 | 1011.7 |
| 20260505010627 | 76 | 192 | 0.9 | 0.9 | 0.00 | 0.00 | 0.00 | 53 | 1011.7 |
| 20260505010125 | 76 | 199 | 0.0 | 0.9 | 0.00 | 0.00 | 0.00 | 53 | 1011.9 |
| 20260505005620 | 76 | 209 | 0.0 | 1.7 | 0.00 | 0.00 | 0.00 | 53 | 1011.9 |
| 20260505005118 | 75 | 209 | 0.9 | 0.9 | 0.00 | 0.00 | 0.00 | 53 | 1011.8 |
| 20260505004615 | 76 | 209 | 0.9 | 0.9 | 0.00 | 0.00 | 0.00 | 53 | 1011.8 |
| 20260505004112 | 76 | 209 | 0.0 | 0.9 | 0.00 | 0.00 | 0.00 | 53 | 1011.9 |
| 20260505003609 | 75 | 208 | 0.9 | 0.9 | 0.00 | 0.00 | 0.00 | 54 | 1011.8 |
| 20260505003106 | 75 | 222 | 0.9 | 1.7 | 0.00 | 0.00 | 0.00 | 54 | 1012.0 |
| 20260505002602 | 75 | 222 | 0.0 | 0.9 | 0.00 | 0.00 | 0.00 | 54 | 1012.0 |
| 20260505002101 | 75 | 182 | 0.9 | 1.7 | 0.00 | 0.00 | 0.00 | 54 | 1011.9 |
| 20260505001557 | 74 | 202 | 1.7 | 2.6 | 0.00 | 0.00 | 0.00 | 54 | 1012.1 |
| 20260505001055 | 73 | 221 | 1.7 | 2.6 | 0.00 | 0.00 | 0.00 | 56 | 1011.9 |
| 20260505000552 | 74 | 208 | 4.3 | 6.1 | 0.00 | 0.00 | 0.00 | 54 | 1011.9 |
| 20260505000049 | 74 | 180 | 0.0 | 0.9 | 0.00 | 0.00 | 0.00 | 55 | 1012.1 |
| 20260504235546 | 74 | 168 | 0.9 | 0.9 | 0.00 | 0.00 | 0.00 | 55 | 1012.1 |
| 20260504235043 | 74 | 180 | 0.9 | 0.9 | 0.00 | 0.00 | 0.00 | 55 | 1012.0 |
| 20260504234540 | 74 | 174 | 0.9 | 1.7 | 0.00 | 0.00 | 0.00 | 56 | 1012.0 |
| 20260504234037 | 73 | 200 | 0.9 | 2.6 | 0.00 | 0.00 | 0.00 | 56 | 1012.1 |
| 20260504233532 | 73 | 187 | 0.0 | 0.9 | 0.00 | 0.00 | 0.00 | 56 | 1012.2 |
| 20260504233029 | 74 | 195 | 0.9 | 1.7 | 0.00 | 0.00 | 0.00 | 54 | 1012.2 |
| 20260504232526 | 74 | 194 | 1.7 | 3.5 | 0.00 | 0.00 | 0.00 | 55 | 1012.4 |
| 20260504232024 | 74 | 184 | 0.9 | 1.7 | 0.00 | 0.00 | 0.00 | 55 | 1012.4 |
| 20260504231520 | 73 | 185 | 0.0 | 1.7 | 0.00 | 0.00 | 0.00 | 55 | 1012.2 |
| 20260504231016 | 74 | 206 | 1.7 | 2.6 | 0.00 | 0.00 | 0.00 | 53 | 1012.5 |
| 20260504230513 | 74 | 186 | 0.9 | 1.7 | 0.00 | 0.00 | 0.00 | 53 | 1012.5 |
| 20260504230012 | 74 | 200 | 0.0 | 1.7 | 0.00 | 0.00 | 0.00 | 53 | 1012.4 |
| 20260504225508 | 75 | 182 | 0.9 | 1.7 | 0.00 | 0.00 | 0.00 | 52 | 1012.5 |
| 20260504225005 | 75 | 184 | 1.7 | 1.7 | 0.00 | 0.00 | 0.00 | 51 | 1012.6 |
| 20260504224502 | 76 | 204 | 1.7 | 2.6 | 0.00 | 0.00 | 0.00 | 49 | 1012.7 |
| 20260504223959 | 76 | 206 | 1.7 | 1.7 | 0.00 | 0.00 | 0.00 | 49 | 1012.7 |
| 20260504223455 | 75 | 215 | 1.7 | 3.5 | 0.00 | 0.00 | 0.00 | 50 | 1012.7 |
| 20260504222951 | 76 | 212 | 1.7 | 1.7 | 0.00 | 0.00 | 0.00 | 50 | 1012.7 |
| 20260504222449 | 77 | 153 | 0.9 | 3.5 | 0.00 | 0.00 | 0.00 | 48 | 1012.8 |
| 20260504221946 | 76 | 182 | 0.9 | 1.7 | 0.00 | 0.00 | 0.00 | 50 | 1012.9 |
| 20260504221443 | 75 | 209 | 1.7 | 1.7 | 0.00 | 0.00 | 0.00 | 51 | 1013.0 |
| 20260504220940 | 75 | 207 | 0.9 | 0.9 | 0.00 | 0.00 | 0.00 | 51 | 1013.0 |
| 20260504220436 | 75 | 192 | 0.9 | 1.7 | 0.00 | 0.00 | 0.00 | 50 | 1013.3 |
| 20260504215934 | 75 | 180 | 1.7 | 1.7 | 0.00 | 0.00 | 0.00 | 50 | 1013.2 |
| 20260504215431 | 74 | 194 | 1.7 | 1.7 | 0.00 | 0.00 | 0.00 | 51 | 1013.2 |
| 20260504214927 | 73 | 189 | 1.7 | 1.7 | 0.00 | 0.00 | 0.00 | 53 | 1013.3 |
| 20260504214423 | 73 | 199 | 2.6 | 2.6 | 0.00 | 0.00 | 0.00 | 51 | 1013.3 |
| 20260504213920 | 72 | 230 | 0.0 | 0.9 | 0.00 | 0.00 | 0.00 | 53 | 1013.4 |
| 20260504213416 | 72 | 207 | 1.7 | 1.7 | 0.00 | 0.00 | 0.00 | 53 | 1013.6 |
| 20260504212914 | 73 | 200 | 1.7 | 1.7 | 0.00 | 0.00 | 0.00 | 53 | 1013.6 |
| 20260504212409 | 72 | 181 | 0.0 | 0.9 | 0.00 | 0.00 | 0.00 | 54 | 1013.5 |
| 20260504211908 | 71 | 196 | 0.0 | 1.7 | 0.00 | 0.00 | 0.00 | 54 | 1013.7 |
| 20260504211403 | 71 | 227 | 0.0 | 2.6 | 0.00 | 0.00 | 0.00 | 55 | 1013.7 |
| 20260504210900 | 72 | 182 | 2.6 | 3.5 | 0.00 | 0.00 | 0.00 | 53 | 1013.9 |
| 20260504210357 | 71 | 206 | 0.9 | 2.6 | 0.00 | 0.00 | 0.00 | 54 | 1013.9 |
| 20260504205854 | 71 | 197 | 1.7 | 1.7 | 0.00 | 0.00 | 0.00 | 55 | 1014.1 |
| 20260504205352 | 71 | 196 | 0.9 | 1.7 | 0.00 | 0.00 | 0.00 | 54 | 1014.2 |
| 20260504204850 | 71 | 212 | 1.7 | 2.6 | 0.00 | 0.00 | 0.00 | 56 | 1014.2 |
| 20260504204349 | 70 | 187 | 0.9 | 1.7 | 0.00 | 0.00 | 0.00 | 56 | 1014.0 |
| 20260504203848 | 70 | 158 | 0.0 | 1.7 | 0.00 | 0.00 | 0.00 | 57 | 1014.4 |
| 20260504203344 | 69 | 174 | 0.9 | 0.9 | 0.00 | 0.00 | 0.00 | 57 | 1014.4 |
| 20260504202840 | 69 | 241 | 3.5 | 3.5 | 0.00 | 0.00 | 0.00 | 56 | 1014.4 |
| 20260504202337 | 68 | 198 | 0.0 | 1.7 | 0.00 | 0.00 | 0.00 | 59 | 1014.4 |
| 20260504201833 | 68 | 172 | 0.0 | 2.6 | 0.00 | 0.00 | 0.00 | 58 | 1014.6 |
| 20260504201331 | 67 | 193 | 0.9 | 2.6 | 0.00 | 0.00 | 0.00 | 61 | 1014.4 |
| 20260504200828 | 67 | 181 | 0.9 | 0.9 | 0.00 | 0.00 | 0.00 | 61 | 1014.6 |
| 20260504200325 | 67 | 181 | 1.7 | 2.6 | 0.00 | 0.00 | 0.00 | 60 | 1014.9 |
| 20260504195821 | 66 | 187 | 1.7 | 1.7 | 0.00 | 0.00 | 0.00 | 62 | 1014.9 |
| 20260504195317 | 65 | 209 | 0.9 | 2.6 | 0.00 | 0.00 | 0.00 | 63 | 1014.7 |
| 20260504194814 | 65 | 202 | 1.7 | 5.2 | 0.00 | 0.00 | 0.00 | 64 | 1014.9 |
| 20260504194310 | 66 | 180 | 1.7 | 1.7 | 0.00 | 0.00 | 0.00 | 62 | 1014.8 |
| 20260504193806 | 64 | 207 | 0.9 | 0.9 | 0.00 | 0.00 | 0.00 | 65 | 1014.7 |
| 20260504193304 | 63 | 214 | 0.0 | 1.7 | 0.00 | 0.00 | 0.00 | 66 | 1014.7 |
| 20260504192802 | 64 | 193 | 0.9 | 1.7 | 0.00 | 0.00 | 0.00 | 66 | 1015.1 |
| 20260504192300 | 63 | 177 | 2.6 | 3.5 | 0.00 | 0.00 | 0.00 | 66 | 1015.2 |
| 20260504191758 | 63 | 183 | 0.9 | 2.6 | 0.00 | 0.00 | 0.00 | 66 | 1015.3 |
| 20260504191255 | 64 | 203 | 1.7 | 2.6 | 0.00 | 0.00 | 0.00 | 66 | 1015.1 |
| 20260504190751 | 63 | 196 | 0.9 | 1.7 | 0.00 | 0.00 | 0.00 | 67 | 1015.3 |
| 20260504190247 | 63 | 194 | 1.7 | 1.7 | 0.00 | 0.00 | 0.00 | 67 | 1014.9 |
| 20260504185744 | 62 | 194 | 0.9 | 0.9 | 0.00 | 0.00 | 0.00 | 70 | 1015.2 |
| 20260504185241 | 62 | 194 | 0.9 | 0.9 | 0.00 | 0.00 | 0.00 | 69 | 1014.9 |
| 20260504184737 | 61 | 194 | 2.6 | 2.6 | 0.00 | 0.00 | 0.00 | 69 | 1015.3 |
| 20260504184233 | 61 | 193 | 0.9 | 1.7 | 0.00 | 0.00 | 0.00 | 69 | 1015.3 |
| 20260504183728 | 61 | 193 | 0.9 | 0.9 | 0.00 | 0.00 | 0.00 | 71 | 1015.2 |
| 20260504183226 | 61 | 193 | 0.9 | 0.9 | 0.00 | 0.00 | 0.00 | 71 | 1015.3 |
| 20260504182724 | 61 | 199 | 0.0 | 0.9 | 0.00 | 0.00 | 0.00 | 71 | 1015.3 |
| 20260504182221 | 61 | 196 | 0.0 | 1.7 | 0.00 | 0.00 | 0.00 | 71 | 1015.1 |
| 20260504181718 | 61 | 205 | 0.9 | 0.9 | 0.00 | 0.00 | 0.00 | 71 | 1015.1 |
| 20260504181215 | 60 | 206 | 0.0 | 0.9 | 0.00 | 0.00 | 0.00 | 73 | 1014.8 |
| 20260504180715 | 60 | 232 | 1.7 | 2.6 | 0.00 | 0.00 | 0.00 | 72 | 1015.3 |
| 20260504180213 | 60 | 224 | 0.0 | 0.9 | 0.00 | 0.00 | 0.00 | 73 | 1015.1 |
| 20260504175710 | 60 | 224 | 0.0 | 0.9 | 0.00 | 0.00 | 0.00 | 72 | 1015.4 |
| 20260504175206 | 60 | 226 | 0.9 | 0.9 | 0.00 | 0.00 | 0.00 | 72 | 1015.1 |
| 20260504174704 | 60 | 217 | 2.6 | 2.6 | 0.00 | 0.00 | 0.00 | 72 | 1015.1 |
| 20260504174202 | 60 | 203 | 0.9 | 0.9 | 0.00 | 0.00 | 0.00 | 73 | 1014.9 |
| 20260504173658 | 60 | 187 | 0.0 | 0.9 | 0.00 | 0.00 | 0.00 | 73 | 1015.2 |
| 20260504173156 | 60 | 187 | 0.9 | 0.9 | 0.00 | 0.00 | 0.00 | 73 | 1015.1 |
| 20260504172652 | 59 | 185 | 0.0 | 0.9 | 0.00 | 0.00 | 0.00 | 75 | 1015.2 |
| 20260504172149 | 59 | 187 | 0.0 | 2.6 | 0.00 | 0.00 | 0.00 | 75 | 1015.1 |
| 20260504171645 | 58 | 214 | 0.9 | 1.7 | 0.00 | 0.00 | 0.00 | 76 | 1015.2 |
| 20260504171142 | 58 | 211 | 0.0 | 0.9 | 0.00 | 0.00 | 0.00 | 77 | 1015.2 |
| 20260504170638 | 58 | 211 | 0.9 | 0.9 | 0.00 | 0.00 | 0.00 | 77 | 1015.1 |
| 20260504170136 | 58 | 212 | 0.9 | 1.7 | 0.00 | 0.00 | 0.00 | 77 | 1014.9 |
| 20260504151027 | 56 | 234 | 0.9 | 3.5 | 0.00 | 0.00 | 0.00 | 82 | 1014.7 |
| 20260504150525 | 55 | 209 | 1.7 | 2.6 | 0.00 | 0.00 | 0.00 | 82 | 1014.5 |
| 20260504140956 | 54 | 226 | 0.9 | 3.5 | 0.00 | 0.00 | 0.00 | 86 | 1014.0 |
| 20260504140453 | 54 | 220 | 0.0 | 2.6 | 0.00 | 0.00 | 0.00 | 86 | 1013.9 |
| 20260504130418 | 53 | 222 | 0.0 | 0.9 | 0.00 | 0.00 | 0.00 | 86 | 1012.9 |
| 20260504110304 | 57 | 204 | 0.9 | 1.7 | 0.00 | 0.00 | 0.00 | 76 | 1011.4 |
| 20260504100222 | 60 | 188 | 1.7 | 1.7 | 0.00 | 0.00 | 0.00 | 70 | 1010.8 |